Location: Aix-en-Ergny
(50.5839°N, 1.9996°E)
Time: 22:01:54
(UTC+00:00)

ATLAS 2AS CENTAUR R/B - Pass Details

Date: 23 October 2019
Orbit: 926 x 1286 km, 63.7° (Epoch: 09 November)

Event Time Altitude Azimuth Distance (km) Brightness Sun altitude
Exits shadow 03:38:14 54° 232° (SW) 1,535 3.1 -27.3°
Maximum altitude 03:40:25 84° 314° (NW) 1,299 3.0 -26.9°
Drops below altitude 10° 03:48:27 10° 43° (NE) 3,262 6.0 -25.7°
Sets 03:51:14 0° 45° (NE) 4,205 6.7 -25.3°
